Погода в Сиануквиле

Камбоджа     10°37′29″N   103°32′01″E
темп.,
°C
ветер,
м/с
пор.,
м/с
влажн.,
%
обл.,
%
осадки,
мм/ч
давл.,
гПа
погр.,
м
1 марта, пн
пн101:00+27зюз227736 0.5 1011373
04:00+27юв117630 1.1 1011436
07:00+27вюв447944 1.2 1012577
10:00+27вюв567950 0.0 1014653
13:00+27ююв658027 0.1 1012541
16:00+27ю45791 0.0 1010445
19:00+28юз337613 0.0 1010292
22:00+28зюз22750 0.1 1014473
2 марта, вт
вт201:00+27ююз22760 0.3 1012521
04:00+27вюв117618 0.0 1011461
07:00+26всв338354 0.1 1012260
10:00+27юв4580100 0.1 1014634
13:00+28ююв667669 0.1 1011552
16:00+28ю677468 0.0 1009443
19:00+28з117236 1.8 1010114
22:00+28ююз23764 1.3 1012433
3 марта, ср
ср301:00+28ю33806 1.4 1011553
04:00+27вюв568053 1.8 1011802
07:00+27вюв787827 1.8 1012803
10:00+27юв797814 0.0 1014983
13:00+28юв787529 0.0 1011840
16:00+28ю56730 0.0 1008498
19:00+28ююз55790 0.0 1010345
22:00+28ююз56782 0.4 1012410
4 марта, чт
чт401:00+28всв33792 1.1 1012260
04:00+27вюв67774 0.1 1011837
07:00+27вюв67787 0.1 1012934
10:00+28вюв687384 0.0 10141119
13:00+29юв677047 0.0 1011630
16:00+29ю44691 0.0 1008343
19:00+29зюз33750 0.0 1010171
22:00+28юз45772 0.1 1012263
5 марта, пт
пт501:00+28сз11771 0.4 1012183
04:00+27в44800 0.1 1011499
07:00+27в56753 0.2 1013655
10:00+27вюв67750 0.0 1014891
13:00+27ююв66740 0.0 1011543
16:00+28ю55693 0.0 1009403
19:00+27ююз67782 0.0 1010443
22:00+27ю44810 0.0 1013695